Regional Weather Roundup
Issued by NWS Newport/Morehead, NC

Current Version | Previous Version | Graphics & Text | Print | Product List | Glossary Off
Versions: 1 2 3 4 5 6 7 8 9 10 11 12 13 14 15 16 17 18 19 20 21 22 23 24 25 26 27 28 29 30 31 32 33 34 35 36 37 38 39 40 41 42 43 44 45 46 47 48 49 50

000
ASUS42 KMHX 110313
RWRMHX
WEATHER ROUNDUP FOR EASTERN NORTH CAROLINA
NATIONAL WEATHER SERVICE NEWPORT/MOREHEAD CITY NC
1000 PM EST WED FEB 10 2016

NOTE: "FAIR" INDICATES FEW OR NO CLOUDS BELOW 12,000 FEET
WITH NO SIGNIFICANT WEATHER AND/OR OBSTRUCTIONS TO VISIBILITY

NCZ015>017-031-032-045>047-102-103-110400-
NORTH COAST

CITY           SKY/WX    TMP DP  RH WIND       PRES   REMARKS
EDENTON        CLOUDY    35  15  43 NW14G23   29.99R
ELIZABETH CITY CLOUDY    34  15  46 W18G29    29.96R
KITTY HAWK     CLOUDY    38  19  44 W8G18     29.90R
MANTEO         CLOUDY    38  21  50 W10G21    29.93R

$$

NCZ045>047-081-094-103-104-110400-
CENTRAL COAST

CITY           SKY/WX    TMP DP  RH WIND       PRES   REMARKS
FRISCO         CLOUDY    39  22  50 W17G30    29.95R
SWANQUARTER      N/A     37 N/A N/A W14G30    29.94R

$$

NCZ095-097-098-100-101-110400-
SOUTHERN COAST

CITY           SKY/WX    TMP DP  RH WIND       PRES   REMARKS
BEAUFORT       CLEAR     35  17  47 W14       30.02R
CEDAR ISLAND     N/A     37 N/A N/A SW13G30   30.03R
JACKSONVILLE   CLEAR     32  17  54 SW7       30.03R
PINEY ISLAND   CLEAR    N/A N/A N/A W18G26    29.99R
WILMINGTON     CLEAR     34  19  54 W13       30.07R


$$

NCZ011>013-027>030-043-044-078>080-089-090>093-098-110400-
COASTAL PLAIN

CITY           SKY/WX    TMP DP  RH WIND       PRES   REMARKS
AHOSKIE        PTCLDY    29   8  41 NW6       30.01R
CLINTON        CLEAR     32  18  56 W5        30.06R
ELIZABETHTOWN  PTCLDY    33  16  50 W8        30.06R
GOLDSBORO      NOT AVBL
GREENVILLE     PTCLDY    32  12  43 NW6G17    30.03R
HAVELOCK       CLEAR     34  17  50 W12       30.02R
KENANSVILLE    CLEAR     31  17  56 CALM      30.04R
KINSTON        CLEAR     32  17  53 NW6       30.04R
NEW BERN       CLEAR     33  17  51 W10       30.02R
RICHLANDS      CLEAR     30  16  55 SW5       30.04R
ROCKY MOUNT    CLEAR     30   8  39 NW12      30.03R
WASHINGTON     MOCLDY    34  12  40 NW14G24   30.01R
WHITEVILLE     CLEAR     33  14  45 SW3       30.08R

$$

AMZ130-135-150-152-154-156-158-170-250-252-270-ANZ085-086-088-633-658-670-110400-
MARINE OBSERVATIONS

STATION/POSITION TIME  TEMP    WIND        PRES    WAVE   SWELL
                       AIR SEA DIR/SP/G            HT/PER HT/PER
                 (UTC) (F)     (DEG/KT/KT) (MB)    (FT/S) (FT/S)
CHESAPEAKE LIGHT 0200   37     290/ 26/ 28 1012.5
64 E VA BEACH    0250   41 49  280/ 21/ 29 1010.7    6/ 5   3/12
DUCK             0200   39                   N/A
2 E DUCK         0211      44                N/A     3/13   2/13
OREGON INLET     0200   38 44                N/A
13E OREGON INLT  0300      47                N/A     4/13   3/13
HATTERAS CG      0200   40 49                N/A
DIAMOND BUOY     0250   43 71  280/ 23/ 29 1013.6    6/ 5   3/14
CAPE LOOKOUT     NOT AVBL
BEAUFORT LAB     0200   37 47                N/A
30 SE NEW RVR IN 0208   42 60              1015.8
30 SE NEW RVR IN 0225      60                N/A     8/ 6   2/11
27 SE WRIGHTSVLE 0208   41 61  300/ 21/ 31 1015.4
5 SE WRIGHTSVLE  0208   39 51  260/ 17/ 23 1017.2
225 S CAPE HAT   0250   55 68  280/ 29/ 37   N/A    16/10  11/10
41 SE CHARLESTON 0250   45 64  280/ 29/ 33 1019.2    8/ 7   2/13

$$



USA.gov is the U.S. government's official web portal to all federal, state and local government web resources and services.